Flag for Canada Weather past 2 weeks in Kenora, Ontario, Canada

9 °F

Light snow. Overcast.

Feels Like: -1 °F
Forecast: 9 / 16 °F
Wind: 6 mph from North

Location: Kenora

Current Time: Nov 26, 2015 at 9:11:29 AM

Latest Report: Nov 26, 2015 at 8:00 AM

Visibility: 8 mi

Pressure: 30.48 "Hg

Humidity: 92%

Dew point: 7 °F

Location of KenoraLocation

Historic Weather in Kenora — Graph


Kenora temperature yesterday

Maximum temperature yesterday: 30 °F (at 12:00 AM)
Minimum temperature yesterday: 16 °F (at 10:00 PM)
Average temperature yesterday: 27 °F

Past Weeks' High & Low Weather Summary

High50 °F (Nov 15, 1:00 PM)100% (Nov 11, 9:00 PM)30.48 "Hg (Nov 11, 9:00 PM)
Low9 °F (Nov 26, 8:00 AM)40% (Nov 15, 2:00 PM)28.81 "Hg (Nov 18, 4:00 PM)
Average31 °F87%29.83 "Hg
* Reported Nov 11 8:00 AM — Nov 26 8:00 AM, Kenora, Weather by CustomWeather, © 2015

Note: Actual official high and low records may vary slightly from our data, if they occured in-between our weather recording intervals... More about our weather records


Kenora weather history for previous 24 hours

Time TempWeatherWind HumidityBarometerVisibility
8:00 AM
Thu, Nov 26
9 °FLight snow. Overcast.6 mph92%30.48 "Hg8 mi
7:00 AM10 °FLight snow. Overcast.6 mph85%30.45 "Hg10 mi
6:00 AM10 °FLight snow. Overcast.7 mph85%30.43 "Hg5 mi
5:00 AM10 °FLight snow. Overcast.9 mph85%30.41 "Hg8 mi
4:00 AM12 °FLight snow. Overcast.12 mph85%30.40 "Hg6 mi
3:00 AM14 °FLight snow. Overcast.10 mph79%30.36 "Hg5 mi
2:00 AM14 °FLight snow. Overcast.7 mph85%30.34 "Hg10 mi
1:00 AM14 °FLight snow. Overcast.6 mph85%30.32 "Hg8 mi
12:00 AM16 °FLight snow. Overcast.7 mph86%30.30 "Hg8 mi
11:00 PM
Wed, Nov 25
16 °FLight snow. Overcast.9 mph86%30.27 "Hg15 mi
10:00 PM16 °FLight snow. Low clouds.10 mph93%30.24 "Hg15 mi
9:00 PM18 °FLight snow. Low clouds.12 mph86%30.20 "Hg15 mi
8:00 PM19 °FLight snow. Overcast.14 mph86%30.17 "Hg15 mi
7:00 PM21 °FLight snow. Low clouds.15 mph86%30.14 "Hg15 mi
6:00 PM23 °FLight snow. Overcast.14 mph86%30.11 "Hg15 mi
5:00 PM25 °FLight snow. Overcast.12 mph86%30.07 "Hg12 mi
4:00 PM27 °FLight snow. Overcast.8 mph86%30.03 "Hg12 mi
3:00 PM28 °FLight snow. Overcast.10 mph86%29.99 "Hg12 mi
2:00 PM28 °FLight snow. Overcast.13 mph86%29.95 "Hg12 mi
1:48 PM28 °FLight snow. Overcast.12 mph93%29.95 "Hg12 mi
1:00 PM30 °FLight snow. More clouds than sun.14 mph86%29.92 "Hg12 mi
12:00 PM30 °FLight snow. Mostly cloudy.12 mph93%29.90 "Hg12 mi
11:00 AM30 °FLight snow. Low clouds.8 mph100%29.89 "Hg10 mi
10:50 AM30 °FLight snow. Low clouds.8 mph100%29.89 "Hg10 mi
10:00 AM30 °FLight snow. More clouds than sun.6 mph100%29.88 "Hg10 mi
9:48 AM30 °FLight snow. Low clouds.7 mph93%29.88 "Hg10 mi
9:00 AM30 °FLight snow. Overcast.5 mph93%29.88 "Hg10 mi
Weather by CustomWeather, © 2015

See weather overviewHow to use our weather pages